CAPE
0 0 0 0 0 0 0 0 0 0 0 0 0 0 0 0 0 0 0 0 3 0 0 0 0 0 0 0 0 0 0 0 0 0 0 0 0 0 0 0 0 0 0 0
0 0 0 0 0 0 0 0 0 0 0 0 0 0 0 0 0 0 0 0 0 0 0 0 0 0 0 0 0 0 0 0 0 0 0 0 0 0 0 0 0 0 0 0
0 0 0 0 0 0 0 0 0 0 0 0 0 0 0 0 0 0 0 0 0 0 0 0 0 0 0 0 0 0 0 0 0 0 0 0 0 0 0 0 0 0 0 0
0 0 0 0 0 0 0 0 0 0 0 0 0 0 0 0 0 0 0 0 0 0 0 0 0 0 0 0 0 0 0 0 0 0 0 0 0 0 0 0 0 0 0 0
0 0 0 0 0 0 0 0 0 0 0 0 0 0 0 0 0 0 0 0 0 0 0 0 0 0 0 0 0 0 0 0 0 0 0 0 0 0 0 0 0 0 0 0
0 0 0 0 0 0 0 0 0 0 0 0 0 0 0 0 0 0 0 0 0 0 0 0 0 0 0 0 0 0 0 0 0 0 0 0 0 0 0 0 0 0 0 0
0 0 0 0 0 0 0 0 0 0 0 0 0 0 0 0 0 0 0 0 0 0 0 0 0 0 0 0 0 0 0 0 0 0 0 0 0 0 0 0 0 0 0 0
0 0 0 0 0 0 0 0 0 0 0 0 0 0 0 0 0 0 0 0 0 0 0 0 0 0 0 0 0 0 0 0 0 0 0 0 0 0 0 0 0 0 0 0
0 0 0 0 0 0 0 0 0 0 0 0 0 0 0 0 0 0 0 0 0 0 0 0 0 0 0 0 0 0 0 0 0 0 0 0 0 0 0 0 0 0 0 0
0 0 0 0 0 0 0 0 0 0 0 0 0 0 0 0 0 0 0 0 0 0 0 0 0 0 0 0 0 0 0 0 0 0 0 0 0 0 0 0 0 0 0 0
0 0 0 0 0 0 0 0 0 0 0 0 0 0 0 0 0 0 0 0 0 0 0 0 0 0 0 0 0 0 0 0 0 0 0 0 0 0 0 0 0 0 0 0
0 0 0 0 0 0 0 0 0 0 0 0 0 0 0 0 0 0 0 0 0 0 0 0 0 0 0 0 0 0 0 0 0 0 0 0 0 0 0 0 0 0 0 0
0 0 0 0 0 0 0 0 0 0 0 0 0 0 0 0 0 0 0 0 0 0 0 0 0 0 0 0 0 0 0 0 0 0 0 0 0 0 0 0 0 0 0 0
0 0 0 0 0 0 0 0 0 0 0 0 0 0 0 0 0 0 0 0 0 0 0 0 0 0 0 0 0 0 0 0 0 0 0 0 0 0 0 0 0 0 0 0
0 0 0 0 0 0 0 0 0 0 0 0 0 0 0 0 0 0 0 0 0 0 0 0 0 0 0 0 0 0 0 0 0 0 0 0 0 0 0 0 0 0 0 0
0 0 0 0 0 0 0 0 0 0 0 0 0 0 0 0 0 0 0 0 0 0 0 0 0 0 0 0 0 0 0 0 0 0 0 0 0 0 0 0 0 0 0 0
0 0 0 0 0 0 0 0 0 0 0 0 0 0 0 0 0 0 0 0 0 0 0 0 0 0 0 0 0 0 0 0 0 0 0 0 0 0 0 0 0 0 0 0
0 0 0 0 0 0 0 0 0 0 0 0 0 0 0 0 0 0 0 0 0 0 0 0 0 0 0 0 0 0 0 0 0 0 0 0 0 0 0 0 0 0 0 0
0 0 0 0 0 0 0 0 0 0 0 0 0 0 0 0 0 0 0 0 0 0 0 0 0 0 0 0 0 0 0 0 0 0 0 0 0 0 0 0 0 0 0 0
0 0 0 0 0 0 0 0 0 0 0 0 0 0 0 0 0 0 0 0 0 0 0 0 0 0 0 0 0 0 0 0 0 0 0 0 0 0 0 0 0 0 0 0
0 0 0 0 0 0 0 0 0 0 0 0 0 0 0 0 0 0 0 0 0 0 0 0 0 0 0 0 0 0 0 0 0 0 0 0 0 0 0 0 0 0 0 0
0 0 0 0 0 0 0 0 0 0 0 0 0 0 0 0 0 0 0 0 0 0 0 0 0 0 0 0 0 0 0 0 0 0 0 0 0 0 0 0 0 0 0 0
0 0 0 0 0 0 0 0 0 0 0 0 0 0 0 0 0 0 0 0 0 0 0 0 0 0 0 0 0 0 0 0 0 0 0 0 0 0 0 0 0 0 0 0
0 0 0 0 0 0 0 0 0 0 0 0 0 0 0 0 0 0 0 0 0 0 0 0 0 0 0 0 0 0 0 0 0 0 0 0 0 0 0 0 0 0 0 0
0 0 0 0 0 0 0 0 0 0 0 0 0 0 0 0 0 0 0 0 0 0 0 0 0 0 0 0 0 0 0 0 0 0 0 0 0 0 0 0 0 0 0 0
0 0 0 0 0 0 0 0 0 0 0 0 0 0 0 0 0 0 0 0 0 0 0 0 0 0 0 0 0 0 0 0 0 0 0 0 0 0 0 0 0 0 0 0
CIN
0 0 0 0 0 0 0 0 0 0 0 0 0 0 0 0 0 0 0 -2 -447 0 0 0 0 0 0 0 0 0 0 0 0 0 0 0 0 0 0 0 0 0 0 0
0 0 0 0 0 0 0 0 0 0 0 0 0 0 0 0 0 0 0 0 0 0 0 0 0 0 0 0 0 0 0 0 0 0 0 0 0 0 0 0 0 0 0 0
0 0 0 0 0 0 0 0 0 0 0 0 0 0 0 0 0 0 0 0 0 0 0 0 0 0 0 0 0 0 0 0 0 0 0 0 0 0 0 0 0 0 0 0
0 0 0 0 0 0 0 0 0 0 0 0 0 0 0 0 0 0 0 0 0 0 0 0 0 0 0 0 0 0 0 0 0 0 0 0 0 0 0 0 0 0 0 0
0 0 0 0 0 0 0 0 0 0 0 0 0 0 0 0 0 0 0 0 0 0 0 0 0 0 0 0 0 0 0 0 0 0 0 0 0 0 0 0 0 0 0 0
0 0 0 0 0 0 0 0 0 0 0 0 0 0 0 0 0 0 0 0 0 0 0 0 0 0 0 0 0 0 0 0 0 0 0 0 0 0 0 0 0 0 0 0
0 0 0 0 0 0 0 0 0 0 0 0 0 0 0 0 0 0 0 0 0 0 0 0 0 0 0 0 0 0 0 0 0 0 0 0 0 0 0 0 0 0 0 0
0 0 0 0 0 0 0 0 0 0 0 0 0 0 0 0 0 0 0 0 0 0 0 0 0 0 0 0 0 0 0 0 0 0 0 0 0 0 0 0 0 0 0 0
0 0 0 0 0 0 0 0 0 0 0 0 0 0 0 0 0 0 0 0 0 0 0 0 0 0 0 0 0 0 0 0 0 0 0 0 0 0 0 0 0 0 0 0
0 0 0 0 0 0 0 0 0 0 0 0 0 0 0 0 0 0 0 0 0 0 0 0 0 0 0 0 0 0 0 0 0 0 0 0 0 0 0 0 0 0 0 0
0 0 0 0 0 0 0 0 0 0 0 0 0 0 0 0 0 0 0 0 0 0 0 0 0 0 0 0 0 0 0 0 0 0 0 0 0 0 0 0 0 0 0 0
0 0 0 0 0 0 0 0 0 0 0 0 0 0 0 0 0 0 0 0 0 0 0 0 0 0 0 0 0 0 0 0 0 0 0 0 0 0 0 0 0 0 0 0
0 0 0 0 0 0 0 0 0 0 0 0 0 0 0 0 0 0 0 0 0 0 0 0 0 0 0 0 0 0 0 0 0 0 0 0 0 0 0 0 0 0 0 0
0 0 0 0 0 0 0 0 0 0 0 0 0 0 0 0 0 0 0 0 0 0 0 0 0 0 0 0 0 0 0 0 0 0 0 0 0 0 0 0 0 0 0 0
0 0 0 0 0 0 0 0 0 0 0 0 0 0 0 0 0 0 0 0 0 0 0 0 0 0 0 0 0 0 0 0 0 0 0 0 0 0 0 0 0 0 0 0
0 0 0 0 0 0 0 0 0 0 0 0 0 0 0 0 0 0 0 0 0 0 0 0 0 0 0 0 0 0 0 0 0 0 0 0 0 0 0 0 0 0 0 0
0 0 0 0 0 0 0 0 0 0 0 0 0 0 0 0 0 0 0 0 0 0 0 0 0 0 0 0 0 0 0 0 0 0 0 0 0 0 0 0 0 0 0 0
0 0 0 0 0 0 0 0 0 0 0 0 0 0 0 0 0 0 0 0 0 0 0 0 0 0 0 0 0 0 0 0 0 0 0 0 0 0 0 0 0 0 0 0
0 0 0 0 0 0 0 0 0 0 0 0 0 0 0 0 0 0 0 0 0 0 0 0 0 0 0 0 0 0 0 0 0 0 0 0 0 0 0 0 0 0 0 0
0 0 0 0 0 0 0 0 0 0 0 0 0 0 0 0 0 0 0 0 0 0 0 0 0 0 0 0 0 0 0 0 0 0 0 0 0 0 0 0 0 0 0 0
0 0 0 0 0 0 0 0 0 0 0 0 0 0 0 0 0 0 0 0 0 0 0 0 0 0 0 0 0 0 0 0 0 0 0 0 0 0 0 0 0 0 0 0
0 0 0 0 0 0 0 0 0 0 0 0 0 0 0 0 0 0 0 0 0 0 0 0 0 0 0 0 0 0 0 0 0 0 0 0 0 0 0 0 0 0 0 0
0 0 0 0 0 0 0 0 0 0 0 0 0 0 0 0 0 0 0 0 0 0 0 0 0 0 0 0 0 0 0 0 0 0 0 0 0 0 0 0 0 0 0 0
0 0 0 0 0 0 0 0 0 0 0 0 0 0 0 0 0 0 0 0 0 0 0 0 0 0 0 0 0 0 0 0 0 0 0 0 0 0 0 0 0 0 0 0
0 0 0 0 0 0 0 0 0 0 0 0 0 0 0 0 0 0 0 0 0 0 0 0 0 0 0 0 0 0 0 0 0 0 0 0 0 0 0 0 0 0 0 0
0 0 0 0 0 0 0 0 0 0 0 0 0 0 0 0 0 0 0 0 0 0 0 0 0 0 0 0 0 0 0 0 0 0 0 0 0 0 0 0 0 0 0 0
Wind_Speed
4 6 1 4 1 1 1 0 3 3 3 4 6 7 8 7 5 5 8 8 8 10 6 8 9 10 10 10 9 8 8 6 6 3 3 3 3 2 2 1 3 4 4 4
6 2 2 4 3 3 2 1 3 5 3 4 1 10 5 6 9 12 9 9 10 5 7 9 11 12 14 14 11 9 8 7 5 4 3 3 4 2 1 1 3 4 5 4
2 5 5 2 1 2 1 3 3 4 4 0 4 6 6 5 3 4 9 8 8 12 11 9 11 12 12 15 16 14 10 10 7 6 4 4 4 3 2 1 1 2 4 4
2 4 4 3 2 1 1 1 2 3 3 4 3 5 6 6 7 7 12 10 11 12 10 9 11 11 14 11 11 12 12 10 7 7 5 5 4 4 3 3 2 3 3 4
6 6 6 2 1 1 5 4 2 2 3 2 2 4 9 1 9 9 13 10 12 14 13 13 14 11 9 9 14 10 11 7 7 7 6 5 4 2 2 2 5 3 2 3
6 1 1 2 3 2 4 2 4 4 3 2 4 6 7 5 8 6 9 11 10 8 8 8 8 12 9 5 7 13 12 7 7 6 7 7 7 5 4 3 4 2 1 2
6 2 2 1 4 2 4 6 4 5 4 6 2 3 10 5 4 3 7 9 7 7 8 9 13 12 11 11 10 8 14 7 6 7 6 6 6 6 7 5 4 4 2 1
2 8 3 2 2 1 2 5 5 5 3 5 1 6 9 4 2 4 6 9 8 7 8 9 11 12 12 10 9 9 10 8 7 7 6 5 6 4 3 4 3 3 2 2
1 5 2 2 2 5 1 3 3 5 2 2 4 9 11 5 5 1 4 2 3 4 5 9 9 9 10 9 8 10 9 7 7 7 6 6 6 5 5 6 5 4 3 3
2 5 1 2 0 1 4 2 1 3 2 4 6 6 9 6 7 2 0 4 4 4 6 7 8 8 6 7 7 8 8 8 7 7 6 6 6 6 6 6 6 6 5 5
1 3 6 3 4 4 2 1 1 1 4 3 3 8 7 6 4 7 6 3 4 6 6 6 6 7 7 7 7 7 7 8 7 7 6 7 6 6 6 6 6 6 6 6
1 3 5 10 2 2 2 3 6 4 3 2 3 10 1 4 7 7 7 6 5 6 6 6 7 7 7 7 7 7 7 8 7 7 8 7 7 7 7 7 6 6 7 6
3 2 5 8 5 2 2 4 3 2 3 6 4 9 1 4 4 1 6 6 5 6 7 7 7 7 7 6 6 7 7 8 8 9 10 7 7 7 7 7 6 6 6 6
1 3 6 6 7 3 4 5 5 4 2 5 9 8 9 6 5 5 4 4 5 6 6 6 6 6 6 6 7 8 8 8 8 9 8 8 7 7 6 6 6 6 5 6
2 5 5 8 11 6 9 11 8 9 8 8 9 10 2 7 7 7 7 6 6 6 6 6 6 6 6 7 7 7 8 8 8 9 8 7 6 6 6 6 6 5 6 5
1 4 2 8 6 5 7 10 9 9 6 10 8 23 10 8 3 5 11 12 10 8 7 6 7 7 8 8 8 9 8 7 7 8 8 7 7 6 6 6 5 5 4 4
5 3 1 6 5 8 8 7 5 5 6 6 9 11 4 5 7 8 8 11 11 10 9 10 10 9 8 8 10 9 8 7 7 8 7 6 6 6 5 4 4 4 3 2
4 4 3 5 6 2 7 3 3 7 7 8 8 7 5 5 4 5 7 11 11 12 11 10 9 8 7 6 7 8 7 7 8 7 7 6 5 5 4 4 3 2 1 2
4 3 2 3 2 8 6 2 4 1 5 3 5 7 2 1 2 4 6 7 13 13 12 11 10 10 7 9 9 9 7 7 8 6 6 5 5 4 3 3 2 1 1 2
5 2 3 1 3 5 4 2 2 2 5 2 3 3 4 2 1 5 5 6 8 9 12 13 11 10 11 9 9 10 8 7 7 6 6 5 4 4 2 1 2 1 1 3
3 2 6 4 5 10 8 4 4 1 6 5 4 5 6 5 5 3 5 5 7 12 14 12 13 12 10 8 8 8 7 7 6 6 5 5 4 3 1 1 1 2 3 4
11 10 6 3 4 9 7 4 7 7 3 3 4 5 8 7 3 3 4 7 11 12 13 12 11 8 7 7 8 7 7 6 6 6 5 4 3 2 2 2 2 3 3 4
4 9 7 13 11 4 8 7 5 5 6 6 5 6 6 6 6 7 6 7 9 13 11 9 12 10 6 6 7 8 7 7 6 5 4 3 2 1 1 2 4 3 3 3
4 5 5 3 8 13 9 5 5 8 8 6 6 6 7 7 7 6 6 7 8 9 11 10 12 10 7 6 6 6 7 6 6 5 3 1 1 3 2 2 2 3 3 4
7 7 5 10 16 7 7 7 10 9 6 6 6 7 10 9 8 9 7 8 9 10 9 11 11 10 9 7 7 5 6 6 5 4 3 2 2 2 3 3 3 3 4 5
9 15 10 18 18 12 7 6 5 8 10 11 8 5 6 8 11 8 9 8 11 11 10 9 9 10 8 7 6 5 5 5 5 3 2 2 2 3 3 3 4 9 12 14
Wind_Direction
354 57 184 240 221 169 175 199 331 278 246 149 216 242 234 206 162 204 211 205 210 207 196 171 180 177 166 154 144 159 148 159 140 128 117 106 132 117 78 104 112 99 92 85
11 348 238 216 207 226 258 310 289 285 266 164 166 257 283 181 211 207 224 217 219 183 194 177 187 174 175 161 161 153 155 159 161 134 134 138 140 139 136 124 89 98 92 89
169 272 322 154 333 40 209 183 236 214 348 262 118 295 248 228 212 224 223 226 204 202 198 188 188 192 183 168 167 164 161 163 155 140 106 77 76 68 77 75 88 82 99 90
282 327 15 18 338 59 290 205 321 286 128 214 150 257 275 213 221 215 236 207 202 196 192 168 173 189 188 183 163 161 150 161 153 152 146 148 155 148 193 165 142 115 101 98
268 347 3 356 276 354 238 14 327 319 162 88 325 81 269 141 219 225 238 236 218 210 186 176 175 180 182 173 162 152 137 150 142 158 160 147 139 132 133 111 125 122 99 102
253 316 185 281 300 220 304 331 46 61 70 22 225 138 279 215 213 223 229 236 224 211 190 167 144 143 148 167 170 148 134 149 149 149 157 161 162 159 136 129 137 144 114 86
328 291 312 54 329 349 69 53 352 0 9 219 204 70 241 250 233 236 273 283 255 191 164 151 147 152 151 155 169 147 134 146 144 148 153 154 155 164 153 153 156 152 144 139
29 333 193 191 177 275 270 152 156 208 209 264 73 240 249 222 259 279 262 266 240 187 157 158 153 153 160 161 148 137 136 128 142 143 140 136 141 142 142 143 130 149 147 132
308 278 274 221 188 131 28 220 171 111 3 23 242 292 303 204 240 303 357 64 85 99 124 132 124 130 132 137 144 139 126 122 139 138 127 121 121 134 123 112 107 110 115 119
262 306 255 284 69 268 153 285 32 3 210 259 285 274 242 270 255 209 17 101 99 100 103 108 115 118 114 119 116 113 125 141 139 128 126 115 119 112 107 102 104 102 93 83
241 138 287 353 201 201 139 200 309 139 152 195 286 267 216 254 263 217 216 180 135 118 117 115 111 106 111 112 124 130 133 130 127 122 110 107 106 102 97 95 92 88 80 75
284 168 268 233 284 245 174 262 151 129 240 228 174 272 248 286 296 209 190 179 147 135 131 124 123 124 126 131 133 134 124 116 112 110 108 108 106 98 93 91 88 84 83 68
165 283 325 338 9 13 240 226 223 71 113 214 169 262 337 334 360 230 179 182 168 147 134 132 129 132 130 123 116 110 107 110 112 114 115 105 103 101 97 93 86 76 76 63
160 179 198 216 233 184 253 221 195 173 156 212 218 278 283 303 250 215 207 176 164 156 144 129 115 114 107 108 115 113 106 119 119 114 112 111 109 107 103 96 83 77 72 65
163 256 189 245 254 241 246 248 217 193 216 214 269 233 237 270 265 214 185 166 162 166 157 151 136 131 123 113 107 108 115 117 120 115 110 112 109 99 92 82 78 74 64 61
148 271 309 286 271 229 264 245 230 230 244 255 268 274 201 227 163 175 186 176 180 180 169 146 134 133 135 137 132 127 126 122 117 110 110 111 102 97 91 83 75 69 57 48
175 183 350 265 330 315 291 229 193 206 208 192 213 253 189 239 246 233 197 188 180 164 163 161 158 153 149 145 141 137 127 118 109 110 110 108 105 96 87 82 69 50 33 22
181 161 174 270 335 302 244 218 225 222 256 220 277 276 258 252 274 259 167 169 169 169 165 161 154 145 145 132 118 121 125 122 119 116 114 110 108 104 90 78 60 15 13 349
190 148 248 249 232 288 295 186 158 165 290 166 251 299 306 61 329 290 196 184 179 178 165 158 156 148 136 141 140 131 128 126 123 124 117 111 107 105 87 60 18 318 322 309
90 66 162 148 229 259 247 178 142 130 287 223 226 224 182 160 8 263 188 160 146 141 148 146 146 143 145 152 144 133 132 128 127 131 126 119 112 102 77 29 337 293 268 279
150 164 208 220 258 282 249 179 154 133 235 186 195 197 173 199 214 276 136 134 145 147 144 141 148 156 156 141 132 128 131 133 130 122 119 107 93 75 60 337 267 287 314 316
174 168 197 144 199 277 160 86 172 206 190 199 215 204 196 213 206 190 159 144 141 137 141 142 133 131 127 130 127 130 131 133 128 124 115 96 75 31 12 342 324 304 293 283
233 197 195 189 208 216 206 195 249 184 167 199 201 227 212 186 196 173 162 147 142 142 134 131 132 126 130 139 137 135 151 141 128 113 107 101 64 339 279 248 275 280 294 289
245 187 215 198 208 240 226 235 224 209 216 199 206 202 181 191 165 155 137 136 135 141 139 135 132 136 129 121 117 125 129 127 120 118 131 165 227 261 272 287 280 288 288 289
200 152 201 258 264 306 253 220 232 228 208 217 200 196 197 161 170 160 153 153 151 145 139 143 143 137 130 125 112 125 132 129 129 146 178 211 234 276 291 282 265 260 252 240
192 227 227 250 259 239 238 217 198 197 210 214 184 195 191 176 165 154 155 156 153 147 141 130 126 125 134 121 129 136 140 145 151 180 206 232 267 284 284 284 287 290 288 293